[[{"header":{"parameterUnit":"m.s-1","parameterCategory":1,"la1":30.2991,"la2":30.254,"lo1":-89.0895,"lo2":-89.0444,"dy":0.0017,"dx":0.0017,"nx":28,"ny":28,"refTime":"2023-08-18T21:00:00:Z","depth":0,"parameterNumber":2,"parameterNumberName":"U-component_of_WINDS"},"data":[0,0,0,0,0,0,0,0,0,0,0,0,0,0,0,0,0,0,0,0,0,0,0,0,0,0,0,0,0,0,0,0,0,0,0,0,0,0,0,0,0,0,0,0,0,0,0,0,0,0,0,0,0,0,0,0,0,0,1.7839,1.784,0,1.7927,1.7928,1.7929,1.7945,1.7944,1.7943,1.7942,1.8039,1.8043,1.8046,0,0,0,0,0,0,0,0,0,0,0,0,0,1.769,1.7693,1.7839,1.784,1.7841,1.7927,1.7928,1.793,1.7945,1.7944,1.7943,1.7942,1.8038,1.8042,1.8046,0,0,0,0,0,0,0,0,0,0,0,0,0,1.7765,1.7694,1.7839,1.7859,1.7861,1.7927,1.7928,1.793,1.7945,1.7944,1.7943,1.7941,1.8037,1.8042,1.8047,1.81,0,0,1.8062,1.8064,0,0,0,0,0,0,0,0,1.776,1.777,1.7855,1.7857,1.786,1.7924,1.7912,1.7987,1.7945,1.7913,1.7942,1.7941,1.8002,1.801,1.8029,1.8105,1.8109,1.8062,1.8065,1.8067,1.8069,0,0,0,0,0,0,0,1.7755,1.7766,1.7874,1.7856,1.7859,1.7866,1.7875,1.7926,1.7963,1.7916,1.7917,1.7927,1.8004,1.8024,1.8032,1.811,1.8062,1.8066,1.807,1.8071,1.8239,1.824,0,0,0,0,0,0,1.7745,1.7762,1.7871,1.7877,1.7806,1.7869,1.788,1.7905,1.7963,1.797,1.7928,1.7928,1.8017,1.8026,1.8035,1.8104,1.8067,1.8072,1.8075,1.8237,1.8239,1.8241,0,0,0,0,0,0,1.7742,1.7755,1.7868,1.782,1.7834,1.7873,1.7901,1.7907,1.7928,1.7972,1.7979,1.7942,1.8016,1.8028,1.8084,1.8108,1.8074,1.8079,1.8236,1.8238,1.824,1.8241,0,0,0,0,0,0,1.7738,1.7754,1.7772,1.782,1.7837,1.7913,1.7902,1.791,1.7935,1.7936,1.7987,1.7994,1.8016,1.8077,1.8089,1.8114,1.8083,1.8234,1.8237,1.8239,1.8239,1.8243,1.8247,0,0,0,0,0,1.7732,1.777,1.7773,1.7786,1.7861,1.7914,1.7924,1.7946,1.7937,1.7958,1.7987,1.7993,1.8103,1.8083,1.8097,1.8123,1.8232,1.8236,1.8239,1.8238,1.8242,1.8246,0,0,0,0,0,0,1.7726,1.7776,1.7781,1.7834,1.7869,1.7916,1.7943,1.795,1.7991,1.7989,1.8017,1.8029,1.8084,1.8109,1.8086,1.818,1.8167,1.8174,1.8162,1.8166,1.817,1.8164,1.8087,0,0,0,0,0,1.773,1.7767,1.781,1.7853,1.7871,1.7904,1.7928,1.7942,1.7981,1.7996,1.8029,1.8069,1.8113,1.8141,1.8183,1.8243,1.8256,1.8268,1.8272,1.8275,1.828,1.8317,1.8324,1.8252,1.8252,1.8252,0,0,1.774,1.7772,1.7794,1.7853,1.7882,1.7922,1.7916,1.7958,1.799,1.8003,1.8058,1.8084,1.813,1.8189,1.8217,1.8212,1.8303,1.8279,1.8281,1.8285,1.8321,1.8328,1.8334,1.8254,1.8253,1.8253,0,0,1.7779,1.7806,1.7846,1.7875,1.7919,1.7941,1.7951,1.7998,1.8015,1.807,1.8083,1.8121,1.8195,1.8228,1.8255,1.831,1.8318,1.8323,1.8342,1.8378,1.8384,1.8389,1.8411,1.8418,1.8328,1.8328,1.8328,0,1.7787,1.7845,1.7866,1.7908,1.7935,1.7948,1.7991,1.802,1.8076,1.8096,1.8089,1.8184,1.8215,1.8284,1.8297,1.8317,1.8332,1.8317,1.838,1.8386,1.8391,1.8413,1.8421,1.8328,1.8328,1.8328,1.8328,0,1.7854,1.7895,1.7922,1.7975,1.8005,1.8047,1.8078,1.8106,1.8118,1.8142,1.8201,1.8239,1.8291,1.8309,1.8321,1.838,1.8376,1.8374,1.8362,1.8398,1.8419,1.8427,1.8329,1.8329,1.8329,1.8329,0,0,1.789,1.7955,1.7965,1.7991,1.8041,1.8074,1.8119,1.8168,1.8193,1.8233,1.8273,1.8336,1.8336,1.8366,1.8383,1.8414,1.8458,1.8409,1.8411,1.8419,1.8529,1.8531,1.854,1.8464,1.8465,1.8466,1.8526,0,1.7937,1.8014,1.8036,1.8102,1.8142,1.8157,1.8196,1.8233,1.8257,1.8297,1.8325,1.837,1.8364,1.8383,1.8414,1.8446,1.8481,1.8442,1.8504,1.8506,1.8493,1.855,1.8552,1.8606,1.8534,1.8535,1.8536,0,1.8001,1.8041,1.8111,1.8159,1.8176,1.8211,1.8259,1.8296,1.834,1.8355,1.839,1.8405,1.8455,1.844,1.8512,1.8485,1.8512,1.8532,1.8534,1.8542,1.8524,1.8562,1.8623,1.8632,1.8549,1.8548,1.8547,0,1.8024,1.8094,1.8146,1.8167,1.8224,1.8248,1.8273,1.8316,1.8345,1.8388,1.8408,1.8457,1.8485,1.8524,1.8553,1.8538,1.8623,1.861,1.8641,1.864,1.8659,1.8657,1.8728,1.8673,1.8673,1.8673,1.8673,0,1.8074,1.8117,1.8157,1.8189,1.8239,1.8265,1.8315,1.8341,1.8379,1.8419,1.8434,1.8472,1.8507,1.855,1.8574,1.8632,1.8643,1.866,1.8666,1.8659,1.8658,1.8679,1.8676,1.8675,1.8675,1.8674,1.8674,0,1.8108,1.8136,1.8194,1.8243,1.8256,1.8291,1.8335,1.8368,1.8393,1.8444,1.8457,1.8498,1.855,1.8582,1.8648,1.8664,1.8729,1.8732,1.8713,1.8716,1.8746,1.8744,1.8834,1.8848,1.8782,1.8783,1.8783,0,1.8139,1.8173,1.8225,1.8252,1.8277,1.832,1.835,1.8378,1.8409,1.8463,1.8491,1.8543,1.8587,1.867,1.8707,1.8759,1.8765,1.8793,1.8773,1.8767,1.8769,1.8767,1.8772,1.8797,1.8798,1.8798,1.8798,0,1.8193,1.8205,1.8246,1.8294,1.8329,1.8367,1.8406,1.8428,1.8463,1.8498,1.855,1.8584,1.8652,1.8705,1.8761,1.879,1.8802,1.8804,1.8815,1.8809,1.8798,1.8807,1.8724,1.8802,1.8802,1.8802,1.8802,1.8801,1.8228,1.8259,1.8302,1.8348,1.838,1.8417,1.8451,1.8481,1.8524,1.858,1.8595,1.8651,1.8697,1.8772,1.8803,1.8849,1.8846,1.886,1.8864,1.8868,1.8869,1.8789,1.8859,1.8859,1.8859,1.8859,1.8859,0,1.8284,1.8312,1.8355,1.8408,1.8446,1.8451,1.8495,1.8527,1.8575,1.8616,1.8659,1.8721,1.8774,1.8815,1.887,1.8899,1.8906,1.8913,1.8912,1.8919,1.8868,1.8855,1.8907,1.8907,1.8907,1.8907,1.8907,1.8907,1.8318,1.8372,1.839,1.8462,1.8491,1.8544,1.8569,1.8605,1.8638,1.8706,1.8749,1.8775,1.8817,1.8876,1.8925,1.8936,1.8957,1.8963,1.8976,1.8928,1.8922,1.8918,1.8905,1.8967,1.8967,1.9023,1.9024,1.9024]},{"header":{"parameterUnit":"m.s-1","parameterCategory":1,"la1":30.2991,"la2":30.254,"lo1":-89.0895,"lo2":-89.0444,"dy":0.0017,"dx":0.0017,"nx":28,"ny":28,"refTime":"2023-08-18T21:00:00:Z","depth":0,"parameterNumber":3,"parameterNumberName":"V-component_of_WINDS"},"data":[0,0,0,0,0,0,0,0,0,0,0,0,0,0,0,0,0,0,0,0,0,0,0,0,0,0,0,0,0,0,0,0,0,0,0,0,0,0,0,0,0,0,0,0,0,0,0,0,0,0,0,0,0,0,0,0,0,0,0.6379,0.6379,0,0.6386,0.6386,0.6386,0.6326,0.6324,0.6322,0.6321,0.6329,0.6331,0.6333,0,0,0,0,0,0,0,0,0,0,0,0,0,0.6311,0.6312,0.6379,0.6379,0.6379,0.6386,0.6386,0.6386,0.6326,0.6324,0.6322,0.632,0.6329,0.6331,0.6333,0,0,0,0,0,0,0,0,0,0,0,0,0,0.6331,0.6313,0.6379,0.635,0.6347,0.6386,0.6386,0.6386,0.6326,0.6324,0.6321,0.6319,0.6328,0.6331,0.6333,0.6401,0,0,0.6341,0.6343,0,0,0,0,0,0,0,0,0.633,0.6334,0.6354,0.6352,0.6349,0.6352,0.6365,0.6391,0.6327,0.6334,0.6321,0.6318,0.6339,0.6341,0.6348,0.6401,0.6402,0.6342,0.6343,0.6345,0.6345,0,0,0,0,0,0,0,0.6329,0.6333,0.6382,0.6354,0.6351,0.6336,0.6336,0.637,0.6351,0.6333,0.6329,0.6331,0.6337,0.6345,0.6347,0.6402,0.6342,0.6344,0.6346,0.6347,0.6506,0.6509,0,0,0,0,0,0,0.6331,0.6333,0.6381,0.6382,0.6333,0.6339,0.6339,0.6354,0.635,0.6347,0.6333,0.6328,0.6342,0.6344,0.6348,0.6423,0.6345,0.6347,0.6349,0.6504,0.6507,0.651,0,0,0,0,0,0,0.633,0.6336,0.6381,0.6356,0.636,0.6343,0.636,0.6355,0.6363,0.635,0.6346,0.6345,0.634,0.6344,0.6387,0.6422,0.6348,0.6351,0.6501,0.6505,0.6508,0.6577,0,0,0,0,0,0,0.6329,0.6336,0.6363,0.6357,0.6362,0.6421,0.6362,0.6357,0.6368,0.6361,0.636,0.6357,0.6338,0.6383,0.639,0.6425,0.6353,0.6497,0.6503,0.6507,0.6571,0.6582,0.6592,0,0,0,0,0,0.6326,0.6383,0.6364,0.637,0.6394,0.6423,0.6426,0.6403,0.6371,0.6396,0.6387,0.6357,0.6418,0.6388,0.6395,0.6431,0.6495,0.6501,0.6507,0.6566,0.658,0.6592,0,0,0,0,0,0,0.6394,0.6382,0.6361,0.6417,0.6422,0.6413,0.6445,0.6419,0.6433,0.6426,0.6397,0.6397,0.6445,0.6443,0.641,0.6494,0.6451,0.6458,0.6494,0.6507,0.6517,0.6515,0.6355,0,0,0,0,0,0.6416,0.644,0.6428,0.6479,0.6482,0.6463,0.6475,0.6456,0.646,0.6462,0.6456,0.646,0.648,0.6494,0.6511,0.6571,0.6568,0.6599,0.661,0.6618,0.6624,0.6652,0.6664,0.6529,0.6529,0.6529,0,0,0.646,0.6456,0.6474,0.6492,0.6493,0.6518,0.6465,0.6495,0.6512,0.6466,0.6505,0.6501,0.6504,0.6555,0.6577,0.6555,0.6661,0.6626,0.6633,0.6634,0.6659,0.6672,0.6683,0.6533,0.6532,0.6532,0,0,0.6553,0.6554,0.6594,0.6596,0.6598,0.6584,0.6594,0.6589,0.6584,0.6623,0.6587,0.6608,0.6644,0.6646,0.6652,0.6742,0.6714,0.6749,0.6803,0.683,0.684,0.685,0.6878,0.689,0.6756,0.6756,0.6756,0,0.6608,0.6645,0.6619,0.6649,0.6657,0.6615,0.6654,0.6657,0.6666,0.6671,0.6646,0.6687,0.6687,0.6735,0.6757,0.6764,0.6772,0.6748,0.6841,0.685,0.6858,0.6885,0.6897,0.676,0.6759,0.6759,0.6759,0,0.671,0.6736,0.6768,0.6775,0.6786,0.6822,0.6799,0.6814,0.6794,0.6783,0.6821,0.6819,0.6833,0.6844,0.6826,0.6889,0.6874,0.6846,0.6801,0.6875,0.69,0.6911,0.6766,0.6764,0.6763,0.6762,0,0,0.6847,0.6836,0.6848,0.6849,0.6846,0.6865,0.6898,0.6911,0.6922,0.6929,0.6953,0.6983,0.6955,0.6962,0.6944,0.6968,0.7034,0.6935,0.6935,0.6951,0.7099,0.7119,0.7131,0.7016,0.7018,0.702,0.7098,0,0.6934,0.6988,0.6964,0.702,0.7041,0.7,0.7027,0.7028,0.7019,0.7035,0.7024,0.7043,0.7008,0.7011,0.7033,0.7022,0.7063,0.7016,0.7037,0.7038,0.7034,0.7145,0.7166,0.724,0.7108,0.711,0.7111,0,0.7044,0.7052,0.711,0.71,0.7108,0.7133,0.7141,0.7158,0.7157,0.7148,0.7154,0.7129,0.7158,0.7115,0.7153,0.7121,0.7128,0.7124,0.7126,0.7125,0.7077,0.7143,0.7263,0.7273,0.7127,0.7125,0.7124,0,0.7133,0.7159,0.7195,0.7198,0.7189,0.7206,0.7203,0.72,0.7208,0.7216,0.722,0.7232,0.7237,0.7246,0.7223,0.7195,0.7263,0.722,0.7254,0.7255,0.7269,0.7268,0.7388,0.7279,0.7279,0.7279,0.7278,0,0.7231,0.7267,0.7234,0.7257,0.7294,0.7266,0.7305,0.7297,0.7294,0.7313,0.728,0.7298,0.7269,0.7285,0.7268,0.73,0.7304,0.7295,0.729,0.7297,0.7297,0.7299,0.7292,0.7282,0.7281,0.728,0.728,0,0.7336,0.7316,0.7352,0.734,0.7337,0.7365,0.7354,0.7373,0.736,0.7384,0.7388,0.7368,0.7384,0.7363,0.7378,0.7366,0.7409,0.7397,0.7408,0.7404,0.7439,0.7434,0.7562,0.7576,0.7461,0.7462,0.7463,0,0.7399,0.7425,0.7414,0.7423,0.7422,0.7439,0.7446,0.7419,0.7428,0.7427,0.7446,0.7458,0.7467,0.7494,0.748,0.749,0.7476,0.752,0.7478,0.7482,0.7473,0.747,0.7471,0.7528,0.753,0.7531,0.7532,0,0.7511,0.7499,0.751,0.7518,0.7527,0.7532,0.7534,0.7544,0.7515,0.7527,0.7542,0.7548,0.7561,0.7573,0.7579,0.7575,0.7548,0.7546,0.7553,0.7559,0.7563,0.7557,0.7429,0.7542,0.7541,0.754,0.754,0.754,0.7594,0.7613,0.7608,0.762,0.7619,0.7621,0.7637,0.7625,0.7637,0.7645,0.7628,0.7647,0.7642,0.7647,0.7646,0.7659,0.764,0.7652,0.7655,0.7658,0.7661,0.7563,0.7661,0.766,0.766,0.766,0.7659,0,0.7701,0.7694,0.7707,0.7709,0.7719,0.7692,0.7693,0.7702,0.7718,0.7717,0.7725,0.774,0.7751,0.7738,0.7746,0.7758,0.7746,0.7761,0.7758,0.7757,0.768,0.767,0.7771,0.7771,0.7771,0.7771,0.7771,0.7771,0.7757,0.7787,0.7774,0.7803,0.7796,0.7813,0.7815,0.7816,0.7813,0.7832,0.784,0.7831,0.7823,0.783,0.7838,0.7834,0.7837,0.7856,0.7847,0.7774,0.7763,0.7753,0.7743,0.7858,0.7858,0.7922,0.7923,0.7923]}]]